| time (UTC) | temp F | wind direction | speed MPH | gust MPH | rain 1hr in | rain 24hr in | rain mn in | humidity % | barometer mb |
| 20260506132019 | 57 | 244 | 11.0 | 16.0 | 0.00 | 0.00 | 0.00 | 93 | |
| 20260506131517 | 59 | 260 | 4.0 | 9.0 | 0.00 | 0.00 | 0.00 | 97 | |
| 20260506131017 | 59 | 256 | 7.0 | 11.0 | 0.00 | 0.00 | 0.00 | 100 | |
| 20260506130524 | 57 | 240 | 9.0 | 11.0 | 0.00 | 0.00 | 0.00 | 100 | |
| 20260506130018 | 57 | 254 | 9.0 | 11.0 | 0.00 | 0.00 | 0.00 | 100 | |
| 20260506125518 | 57 | 239 | 13.0 | 16.0 | 0.00 | 0.00 | 0.00 | 100 | |
| 20260506125017 | 57 | 224 | 13.0 | 16.0 | 0.00 | 0.00 | 0.00 | 100 | |
| 20260506124518 | 59 | 232 | 7.0 | 11.0 | 0.00 | 0.00 | 0.00 | 100 | |
| 20260506124018 | 57 | 243 | 7.0 | 9.0 | 0.00 | 0.00 | 0.00 | 100 | |
| 20260506123518 | 59 | 205 | 4.0 | 7.0 | 0.00 | 0.00 | 0.00 | 100 | |
| 20260506123017 | 57 | 241 | 9.0 | 16.0 | 0.00 | 0.00 | 0.00 | 100 | |
| 20260506122517 | 57 | 242 | 11.0 | 16.0 | 0.00 | 0.00 | 0.00 | 100 | |
| 20260506122019 | 55 | 248 | 4.0 | 11.0 | 0.00 | 0.00 | 0.00 | 100 | |
| 20260506121517 | 55 | 253 | 11.0 | 16.0 | 0.00 | 0.00 | 0.00 | 100 | |
| 20260506121017 | 55 | 248 | 9.0 | 16.0 | 0.00 | 0.00 | 0.00 | 100 | |
| 20260506120518 | 55 | 229 | 7.0 | 11.0 | 0.00 | 0.00 | 0.00 | 100 | |
| 20260506120017 | 55 | 215 | 9.0 | 11.0 | 0.00 | 0.00 | 0.00 | 100 | |
| 20260506115517 | 55 | 241 | 7.0 | 9.0 | 0.00 | 0.00 | 0.00 | 100 | |
| 20260506115017 | 55 | 233 | 11.0 | 13.0 | 0.00 | 0.00 | 0.00 | 100 | |
| 20260506114517 | 54 | 254 | 9.0 | 11.0 | 0.00 | 0.00 | 0.00 | 100 | |
| 20260506114016 | 54 | 231 | 13.0 | 13.0 | 0.00 | 0.00 | 0.00 | 100 | |
| 20260506113517 | 55 | 242 | 9.0 | 13.0 | 0.00 | 0.00 | 0.00 | 100 | |
| 20260506113018 | 54 | 222 | 9.0 | 11.0 | 0.00 | 0.00 | 0.00 | 100 | |
| 20260506112517 | 54 | 241 | 11.0 | 13.0 | 0.00 | 0.00 | 0.00 | 100 | |
| 20260506112020 | 54 | 245 | 11.0 | 13.0 | 0.00 | 0.00 | 0.00 | 100 | |
| 20260506111518 | 54 | 250 | 9.0 | 16.0 | 0.00 | 0.00 | 0.00 | 100 | |
| 20260506111018 | 52 | 247 | 11.0 | 16.0 | 0.00 | 0.00 | 0.00 | 100 | |
| 20260506110517 | 54 | 238 | 11.0 | 13.0 | 0.00 | 0.00 | 0.00 | 100 | |
| 20260506110017 | 52 | 249 | 11.0 | 13.0 | 0.00 | 0.00 | 0.00 | 100 | |
| 20260506105518 | 52 | 237 | 9.0 | 11.0 | 0.00 | 0.00 | 0.00 | 100 | |
| 20260506105018 | 52 | 235 | 9.0 | 16.0 | 0.00 | 0.00 | 0.00 | 100 | |
| 20260506104519 | 52 | 215 | 7.0 | 11.0 | 0.00 | 0.00 | 0.00 | 100 | |
| 20260506104017 | 52 | 226 | 9.0 | 11.0 | 0.00 | 0.00 | 0.00 | 100 | |
| 20260506103517 | 52 | 233 | 9.0 | 13.0 | 0.00 | 0.00 | 0.00 | 100 | |
| 20260506103018 | 52 | 250 | 13.0 | 16.0 | 0.00 | 0.00 | 0.00 | 100 | |
| 20260506102517 | 52 | 223 | 9.0 | 11.0 | 0.00 | 0.00 | 0.00 | 100 | |
| 20260506102024 | 52 | 226 | 9.0 | 13.0 | 0.00 | 0.00 | 0.00 | 100 | |
| 20260506101518 | 52 | 235 | 9.0 | 11.0 | 0.00 | 0.00 | 0.00 | 100 | |
| 20260506101017 | 50 | 233 | 7.0 | 11.0 | 0.00 | 0.00 | 0.00 | 100 | |
| 20260506100517 | 50 | 242 | 9.0 | 11.0 | 0.00 | 0.00 | 0.00 | 100 | |
| 20260506100017 | 50 | 246 | 7.0 | 9.0 | 0.00 | 0.00 | 0.00 | 100 | |
| 20260506095518 | 50 | 246 | 9.0 | 13.0 | 0.00 | 0.00 | 0.00 | 100 | |
| 20260506095018 | 50 | 248 | 11.0 | 11.0 | 0.00 | 0.00 | 0.00 | 100 | |
| 20260506094518 | 50 | 248 | 11.0 | 13.0 | 0.00 | 0.00 | 0.00 | 100 | |
| 20260506094018 | 50 | 248 | 11.0 | 16.0 | 0.00 | 0.00 | 0.00 | 100 | |
| 20260506093518 | 50 | 242 | 9.0 | 13.0 | 0.00 | 0.00 | 0.00 | 100 | |
| 20260506093018 | 50 | 245 | 11.0 | 13.0 | 0.00 | 0.00 | 0.00 | 100 | |
| 20260506092522 | 50 | 243 | 7.0 | 9.0 | 0.00 | 0.00 | 0.00 | 100 | |
| 20260506092021 | 48 | 240 | 7.0 | 11.0 | 0.00 | 0.00 | 0.00 | 100 | |
| 20260506091517 | 48 | 238 | 11.0 | 13.0 | 0.00 | 0.00 | 0.00 | 100 | |
| 20260506091017 | 48 | 255 | 9.0 | 11.0 | 0.00 | 0.00 | 0.00 | 100 | |
| 20260506090518 | 48 | 247 | 11.0 | 16.0 | 0.00 | 0.00 | 0.00 | 100 | |
| 20260506090017 | 48 | 258 | 11.0 | 16.0 | 0.00 | 0.00 | 0.00 | 100 | |
| 20260506085518 | 48 | 259 | 11.0 | 16.0 | 0.00 | 0.00 | 0.00 | 100 | |
| 20260506085017 | 48 | 256 | 13.0 | 16.0 | 0.00 | 0.00 | 0.00 | 100 | |
| 20260506084517 | 48 | 251 | 13.0 | 16.0 | 0.00 | 0.00 | 0.00 | 100 | |
| 20260506084017 | 48 | 256 | 11.0 | 16.0 | 0.00 | 0.00 | 0.00 | 100 | |
| 20260506083516 | 48 | 242 | 11.0 | 13.0 | 0.00 | 0.00 | 0.00 | 100 | |
| 20260506083018 | 48 | 231 | 9.0 | 13.0 | 0.00 | 0.00 | 0.00 | 100 | |
| 20260506082518 | 48 | 232 | 4.0 | 4.0 | 0.00 | 0.00 | 0.00 | 100 | |
| 20260506082019 | 48 | 242 | 9.0 | 11.0 | 0.00 | 0.00 | 0.00 | 100 | |
| 20260506081517 | 48 | 219 | 7.0 | 11.0 | 0.00 | 0.00 | 0.00 | 100 | |
| 20260506081019 | 48 | 252 | 9.0 | 11.0 | 0.00 | 0.00 | 0.00 | 100 | |
| 20260506080524 | 46 | 244 | 9.0 | 9.0 | 0.00 | 0.00 | 0.00 | 100 | |
| 20260506073517 | 46 | 245 | 9.0 | 11.0 | 0.00 | 0.00 | 0.00 | 100 | |
| 20260506073017 | 46 | 253 | 9.0 | 11.0 | 0.00 | 0.00 | 0.00 | 100 | |
| 20260506072518 | 46 | 245 | 11.0 | 13.0 | 0.00 | 0.00 | 0.00 | 100 | |
| 20260506072020 | 46 | 237 | 9.0 | 11.0 | 0.00 | 0.00 | 0.00 | 100 | |
| 20260506071517 | 46 | 241 | 11.0 | 16.0 | 0.00 | 0.00 | 0.00 | 100 | |
| 20260506071017 | 46 | 258 | 13.0 | 16.0 | 0.00 | 0.00 | 0.00 | 100 | |
| 20260506070518 | 46 | 249 | 16.0 | 20.0 | 0.00 | 0.00 | 0.00 | 100 | |
| 20260506062021 | 46 | 251 | 16.0 | 20.0 | 0.00 | 0.00 | 0.00 | 100 | |
| 20260506061518 | 46 | 264 | 11.0 | 18.0 | 0.00 | 0.00 | 0.00 | 100 | |
| 20260506061017 | 46 | 258 | 11.0 | 20.0 | 0.00 | 0.00 | 0.00 | 100 | |
| 20260506060517 | 46 | 248 | 13.0 | 18.0 | 0.00 | 0.00 | 0.00 | 100 | |
| 20260506051018 | 46 | 243 | 9.0 | 11.0 | 0.00 | 0.00 | 0.00 | 100 | |
| 20260506050518 | 46 | 254 | 7.0 | 11.0 | 0.00 | 0.00 | 0.00 | 100 | |
| 20260506045019 | 46 | 249 | 11.0 | 11.0 | 0.00 | 0.00 | 0.00 | 100 | |
| 20260506044517 | 46 | 245 | 11.0 | 13.0 | 0.00 | 0.00 | 0.00 | 100 | |
| 20260506044017 | 46 | 256 | 7.0 | 13.0 | 0.00 | 0.00 | 0.00 | 100 | |
| 20260506043517 | 46 | 256 | 13.0 | 18.0 | 0.00 | 0.00 | 0.00 | 100 | |
| 20260506043017 | 46 | 261 | 11.0 | 13.0 | 0.00 | 0.00 | 0.00 | 100 | |
| 20260506042517 | 46 | 247 | 13.0 | 18.0 | 0.00 | 0.00 | 0.00 | 100 | |
| 20260506042023 | 46 | 255 | 11.0 | 11.0 | 0.00 | 0.00 | 0.00 | 100 | |
| 20260506041517 | 46 | 265 | 11.0 | 13.0 | 0.00 | 0.00 | 0.00 | 100 | |
| 20260506041018 | 46 | 253 | 9.0 | 13.0 | 0.00 | 0.00 | 0.00 | 100 | |
| 20260506040517 | 46 | 261 | 9.0 | 13.0 | 0.00 | 0.00 | 0.00 | 100 | |
| 20260506040017 | 46 | 247 | 11.0 | 13.0 | 0.00 | 0.00 | 0.00 | 100 | |
| 20260506035518 | 46 | 257 | 11.0 | 13.0 | 0.00 | 0.00 | 0.00 | 100 | |
| 20260506035017 | 46 | 267 | 11.0 | 13.0 | 0.00 | 0.00 | 0.00 | 100 | |
| 20260506034518 | 46 | 263 | 11.0 | 13.0 | 0.00 | 0.00 | 0.00 | 100 | |
| 20260506034018 | 46 | 258 | 7.0 | 11.0 | 0.00 | 0.00 | 0.00 | 100 | |
| 20260506033518 | 46 | 252 | 11.0 | 13.0 | 0.00 | 0.00 | 0.00 | 100 | |
| 20260506033017 | 46 | 241 | 9.0 | 11.0 | 0.00 | 0.00 | 0.00 | 100 | |
| 20260506032517 | 46 | 251 | 9.0 | 13.0 | 0.00 | 0.00 | 0.00 | 100 | |
| 20260506032022 | 46 | 241 | 13.0 | 16.0 | 0.00 | 0.00 | 0.00 | 100 | |
| 20260506031518 | 46 | 242 | 11.0 | 16.0 | 0.00 | 0.00 | 0.00 | 100 | |
| 20260506030518 | 46 | 246 | 11.0 | 13.0 | 0.00 | 0.00 | 0.00 | 100 | |
| 20260506030018 | 46 | 249 | 9.0 | 11.0 | 0.00 | 0.00 | 0.00 | 100 | |
| 20260506025517 | 46 | 244 | 11.0 | 13.0 | 0.00 | 0.00 | 0.00 | 100 | |
| 20260506024519 | 46 | 247 | 13.0 | 16.0 | 0.00 | 0.00 | 0.00 | 100 | |
| 20260506024017 | 46 | 248 | 13.0 | 18.0 | 0.00 | 0.00 | 0.00 | 100 | |
| 20260506023518 | 46 | 248 | 11.0 | 13.0 | 0.00 | 0.00 | 0.00 | 100 | |
| 20260506023018 | 46 | 248 | 9.0 | 11.0 | 0.00 | 0.00 | 0.00 | 100 | |
| 20260506022517 | 46 | 237 | 9.0 | 11.0 | 0.00 | 0.00 | 0.00 | 100 | |
| 20260506022020 | 48 | 241 | 11.0 | 13.0 | 0.00 | 0.00 | 0.00 | 100 | |
| 20260506021518 | 48 | 238 | 11.0 | 13.0 | 0.00 | 0.00 | 0.00 | 100 | |
| 20260506021018 | 48 | 237 | 11.0 | 13.0 | 0.00 | 0.00 | 0.00 | 100 | |
| 20260506020517 | 48 | 231 | 11.0 | 13.0 | 0.00 | 0.00 | 0.00 | 100 | |
| 20260506020018 | 50 | 235 | 11.0 | 13.0 | 0.00 | 0.00 | 0.00 | 100 | |
| 20260506015516 | 50 | 242 | 11.0 | 13.0 | 0.00 | 0.00 | 0.00 | 100 | |
| 20260506015025 | 50 | 233 | 11.0 | 13.0 | 0.00 | 0.00 | 0.00 | 100 | |
| 20260506014518 | 50 | 236 | 9.0 | 11.0 | 0.00 | 0.00 | 0.00 | 100 | |
| 20260506014017 | 50 | 254 | 13.0 | 13.0 | 0.00 | 0.00 | 0.00 | 100 | |
| 20260506013518 | 52 | 240 | 9.0 | 9.0 | 0.00 | 0.00 | 0.00 | 100 | |
| 20260506013018 | 52 | 259 | 7.0 | 7.0 | 0.00 | 0.00 | 0.00 | 100 | |
| 20260506012516 | 50 | 291 | 4.0 | 7.0 | 0.00 | 0.00 | 0.00 | 100 | |
| 20260506012017 | 48 | 286 | 2.0 | 4.0 | 0.00 | 0.00 | 0.00 | 100 | |
| 20260506011017 | 46 | 39 | 2.0 | 2.0 | 0.00 | 0.00 | 0.00 | 100 | |
| 20260506010517 | 46 | 39 | 4.0 | 4.0 | 0.00 | 0.00 | 0.00 | 100 | |
| 20260506010017 | 46 | 43 | 4.0 | 4.0 | 0.00 | 0.00 | 0.00 | 100 | |
| 20260506005517 | 46 | 34 | 7.0 | 7.0 | 0.00 | 0.00 | 0.00 | 100 | |
| 20260506005017 | 46 | 27 | 4.0 | 4.0 | 0.00 | 0.00 | 0.00 | 100 | |
| 20260506004518 | 46 | 16 | 4.0 | 4.0 | 0.00 | 0.00 | 0.00 | 100 | |
| 20260506004017 | 46 | 18 | 0.0 | 2.0 | 0.00 | 0.00 | 0.00 | 100 | |
| 20260506003517 | 48 | 6 | 0.0 | 2.0 | 0.00 | 0.00 | 0.00 | 100 | |
| 20260506003018 | 46 | 6 | 0.0 | 4.0 | 0.00 | 0.00 | 0.00 | 100 | |
| 20260506002516 | 48 | 17 | 0.0 | 2.0 | 0.00 | 0.00 | 0.00 | 100 | |
| 20260506002018 | 48 | 348 | 2.0 | 4.0 | 0.00 | 0.00 | 0.00 | 100 | |
| 20260506001517 | 46 | 324 | 7.0 | 9.0 | 0.00 | 0.00 | 0.00 | 100 | |
| 20260506001018 | 46 | 332 | 9.0 | 11.0 | 0.00 | 0.00 | 0.00 | 100 | |
| 20260506000518 | 46 | 339 | 9.0 | 11.0 | 0.00 | 0.00 | 0.00 | 100 | |
| 20260506000011 | 48 | 331 | 11.0 | 16.0 | 0.00 | 0.00 | 0.00 | 100 | |
| 20260505235517 | 48 | 324 | 13.0 | 18.0 | 0.00 | 0.00 | 0.00 | 100 | |
| 20260505235017 | 48 | 302 | 11.0 | 13.0 | 0.00 | 0.00 | 0.00 | 100 | |
| 20260505234517 | 46 | 318 | 16.0 | 20.0 | 0.00 | 0.00 | 0.00 | 100 | |
| 20260505234018 | 46 | 301 | 13.0 | 18.0 | 0.00 | 0.00 | 0.00 | 100 | |
| 20260505233517 | 46 | 314 | 16.0 | 22.0 | 0.00 | 0.00 | 0.00 | 100 | |
| 20260505233018 | 48 | 307 | 13.0 | 16.0 | 0.00 | 0.00 | 0.00 | 100 | |
| 20260505232509 | 48 | 308 | 11.0 | 16.0 | 0.00 | 0.00 | 0.00 | 100 | |
| 20260505232012 | 48 | 312 | 13.0 | 18.0 | 0.00 | 0.00 | 0.00 | 100 | |
| 20260505231510 | 48 | 297 | 13.0 | 18.0 | 0.00 | 0.00 | 0.00 | 100 | |
| 20260505231017 | 48 | 305 | 13.0 | 20.0 | 0.00 | 0.00 | 0.00 | 100 | |
| 20260505230518 | 48 | 297 | 13.0 | 18.0 | 0.00 | 0.00 | 0.00 | 100 | |
| 20260505230017 | 48 | 278 | 13.0 | 16.0 | 0.00 | 0.00 | 0.00 | 100 | |
| 20260505225516 | 50 | 270 | 11.0 | 18.0 | 0.00 | 0.00 | 0.00 | 100 | |
| 20260505225017 | 50 | 295 | 13.0 | 22.0 | 0.00 | 0.00 | 0.00 | 100 | |
| 20260505224517 | 50 | 262 | 7.0 | 11.0 | 0.00 | 0.00 | 0.00 | 100 | |
| 20260505224025 | 50 | 283 | 13.0 | 16.0 | 0.00 | 0.00 | 0.00 | 100 | |
| 20260505223517 | 52 | 271 | 11.0 | 13.0 | 0.00 | 0.00 | 0.00 | 100 | |
| 20260505223018 | 52 | 263 | 4.0 | 9.0 | 0.00 | 0.00 | 0.00 | 100 | |
| 20260505222517 | 52 | 266 | 9.0 | 11.0 | 0.00 | 0.00 | 0.00 | 100 | |
| 20260505222020 | 52 | 248 | 9.0 | 11.0 | 0.00 | 0.00 | 0.00 | 100 | |
| 20260505221518 | 52 | 264 | 7.0 | 9.0 | 0.00 | 0.00 | 0.00 | 100 | |
| 20260505221017 | 52 | 266 | 13.0 | 16.0 | 0.00 | 0.00 | 0.00 | 100 | |
| 20260505220517 | 54 | 234 | 9.0 | 13.0 | 0.00 | 0.00 | 0.00 | 100 | |
| 20260505220017 | 54 | 252 | 11.0 | 18.0 | 0.00 | 0.00 | 0.00 | 100 | |
| 20260505215517 | 55 | 129 | 7.0 | 11.0 | 0.00 | 0.00 | 0.00 | 100 | |
| 20260505215022 | 55 | 94 | 18.0 | 18.0 | 0.00 | 0.00 | 0.00 | 100 | |
| 20260505214517 | 57 | 85 | 18.0 | 20.0 | 0.00 | 0.00 | 0.00 | 100 | |
| 20260505214017 | 55 | 83 | 18.0 | 20.0 | 0.00 | 0.00 | 0.00 | 100 | |
| 20260505213517 | 55 | 86 | 20.0 | 22.0 | 0.00 | 0.00 | 0.00 | 100 | |
| 20260505213017 | 55 | 84 | 18.0 | 20.0 | 0.00 | 0.00 | 0.00 | 100 | |
| 20260505212518 | 55 | 79 | 20.0 | 22.0 | 0.00 | 0.00 | 0.00 | 100 | |
| 20260505212018 | 55 | 82 | 20.0 | 22.0 | 0.00 | 0.00 | 0.00 | 100 | |
| 20260505211518 | 55 | 75 | 18.0 | 20.0 | 0.00 | 0.00 | 0.00 | 100 | |
| 20260505211017 | 54 | 74 | 16.0 | 18.0 | 0.00 | 0.00 | 0.00 | 100 | |
| 20260505210517 | 55 | 68 | 18.0 | 18.0 | 0.00 | 0.00 | 0.00 | 100 | |
| 20260505210017 | 57 | 70 | 18.0 | 20.0 | 0.00 | 0.00 | 0.00 | 100 | |
| 20260505205517 | 57 | 68 | 20.0 | 20.0 | 0.00 | 0.00 | 0.00 | 99 | |
| 20260505205016 | 55 | 68 | 18.0 | 18.0 | 0.00 | 0.00 | 0.00 | 100 | |
| 20260505204518 | 57 | 65 | 18.0 | 18.0 | 0.00 | 0.00 | 0.00 | 100 | |
| 20260505204017 | 57 | 64 | 16.0 | 20.0 | 0.00 | 0.00 | 0.00 | 100 | |
| 20260505203524 | 55 | 60 | 18.0 | 20.0 | 0.00 | 0.00 | 0.00 | 100 | |
| 20260505203018 | 55 | 56 | 16.0 | 18.0 | 0.00 | 0.00 | 0.00 | 100 | |
| 20260505202518 | 55 | 64 | 18.0 | 20.0 | 0.00 | 0.00 | 0.00 | 100 | |
| 20260505202027 | 54 | 62 | 16.0 | 20.0 | 0.00 | 0.00 | 0.00 | 100 | |
| 20260505201517 | 55 | 58 | 16.0 | 20.0 | 0.00 | 0.00 | 0.00 | 100 | |
| 20260505201017 | 55 | 57 | 16.0 | 18.0 | 0.00 | 0.00 | 0.00 | 100 | |
| 20260505200518 | 55 | 51 | 16.0 | 18.0 | 0.00 | 0.00 | 0.00 | 100 | |
| 20260505200025 | 55 | 50 | 16.0 | 18.0 | 0.00 | 0.00 | 0.00 | 100 | |
| 20260505195516 | 55 | 49 | 16.0 | 16.0 | 0.00 | 0.00 | 0.00 | 100 | |
| 20260505195017 | 55 | 43 | 16.0 | 18.0 | 0.00 | 0.00 | 0.00 | 100 | |
| 20260505194518 | 55 | 50 | 16.0 | 18.0 | 0.00 | 0.00 | 0.00 | 100 | |
| 20260505194017 | 55 | 52 | 16.0 | 18.0 | 0.00 | 0.00 | 0.00 | 100 | |
| 20260505193518 | 55 | 55 | 16.0 | 18.0 | 0.00 | 0.00 | 0.00 | 100 | |
| 20260505193018 | 54 | 57 | 13.0 | 16.0 | 0.00 | 0.00 | 0.00 | 100 | |
| 20260505192517 | 54 | 59 | 13.0 | 16.0 | 0.00 | 0.00 | 0.00 | 100 | |
| 20260505192019 | 55 | 46 | 11.0 | 11.0 | 0.00 | 0.00 | 0.00 | 99 | |
| 20260505191518 | 55 | 53 | 11.0 | 13.0 | 0.00 | 0.00 | 0.00 | 100 | |
| 20260505191017 | 57 | 52 | 11.0 | 11.0 | 0.00 | 0.00 | 0.00 | 95 | |
| 20260505190517 | 57 | 74 | 9.0 | 11.0 | 0.00 | 0.00 | 0.00 | 100 | |
| 20260505190018 | 57 | 56 | 9.0 | 9.0 | 0.00 | 0.00 | 0.00 | 100 | |
| 20260505185518 | 57 | 91 | 2.0 | 11.0 | 0.00 | 0.00 | 0.00 | 100 | |
| 20260505185025 | 55 | 149 | 2.0 | 4.0 | 0.00 | 0.00 | 0.00 | 100 | |
| 20260505184518 | 55 | 149 | 7.0 | 7.0 | 0.00 | 0.00 | 0.00 | 100 | |
| 20260505184018 | 54 | 157 | 7.0 | 9.0 | 0.00 | 0.00 | 0.00 | 100 | |
| 20260505183517 | 55 | 190 | 11.0 | 11.0 | 0.00 | 0.00 | 0.00 | 100 | |
| 20260505183018 | 54 | 182 | 11.0 | 16.0 | 0.00 | 0.00 | 0.00 | 100 | |
| 20260505182517 | 54 | 200 | 11.0 | 13.0 | 0.00 | 0.00 | 0.00 | 100 | |
| 20260505182020 | 55 | 180 | 13.0 | 18.0 | 0.00 | 0.00 | 0.00 | 100 | |
| 20260505181517 | 57 | 154 | 4.0 | 9.0 | 0.00 | 0.00 | 0.00 | 100 | |
| 20260505181017 | 59 | 61 | 7.0 | 7.0 | 0.00 | 0.00 | 0.00 | 100 | |
| 20260505180517 | 59 | 38 | 11.0 | 13.0 | 0.00 | 0.00 | 0.00 | 100 | |
| 20260505180018 | 59 | 39 | 13.0 | 13.0 | 0.00 | 0.00 | 0.00 | 100 | |
| 20260505175517 | 59 | 37 | 13.0 | 13.0 | 0.00 | 0.00 | 0.00 | 100 | |
| 20260505175017 | 59 | 36 | 11.0 | 13.0 | 0.00 | 0.00 | 0.00 | 100 | |
| 20260505174517 | 59 | 34 | 11.0 | 13.0 | 0.00 | 0.00 | 0.00 | 100 | |
| 20260505174017 | 59 | 32 | 9.0 | 11.0 | 0.00 | 0.00 | 0.00 | 100 | |
| 20260505173518 | 59 | 26 | 11.0 | 13.0 | 0.00 | 0.00 | 0.00 | 100 | |
| 20260505173022 | 59 | 23 | 7.0 | 11.0 | 0.00 | 0.00 | 0.00 | 100 | |
| 20260505172518 | 59 | 28 | 9.0 | 11.0 | 0.00 | 0.00 | 0.00 | 100 | |
| 20260505172019 | 59 | 19 | 9.0 | 9.0 | 0.00 | 0.00 | 0.00 | 100 | |
| 20260505171510 | 61 | 16 | 7.0 | 9.0 | 0.00 | 0.00 | 0.00 | 99 | |
| 20260505171017 | 61 | 16 | 7.0 | 7.0 | 0.00 | 0.00 | 0.00 | 97 | |
| 20260505170524 | 61 | 20 | 7.0 | 9.0 | 0.00 | 0.00 | 0.00 | 96 | |
| 20260505170017 | 61 | 12 | 7.0 | 9.0 | 0.00 | 0.00 | 0.00 | 94 | |
| 20260505165518 | 61 | 12 | 4.0 | 4.0 | 0.00 | 0.00 | 0.00 | 92 | |
| 20260505165017 | 61 | 16 | 2.0 | 4.0 | 0.00 | 0.00 | 0.00 | 89 | |
| 20260505164518 | 61 | 37 | 7.0 | 7.0 | 0.00 | 0.00 | 0.00 | 88 | |
| 20260505164017 | 61 | 34 | 7.0 | 9.0 | 0.00 | 0.00 | 0.00 | 87 | |
| 20260505163518 | 61 | 32 | 4.0 | 7.0 | 0.00 | 0.00 | 0.00 | 85 | |
| 20260505163019 | 63 | 22 | 7.0 | 7.0 | 0.00 | 0.00 | 0.00 | 82 | |
| 20260505162517 | 63 | 25 | 7.0 | 9.0 | 0.00 | 0.00 | 0.00 | 81 | |
| 20260505162017 | 61 | 27 | 9.0 | 9.0 | 0.00 | 0.00 | 0.00 | 81 | |
| 20260505161518 | 63 | 33 | 7.0 | 9.0 | 0.00 | 0.00 | 0.00 | 77 | |
| 20260505161017 | 63 | 24 | 7.0 | 9.0 | 0.00 | 0.00 | 0.00 | 74 | |
| 20260505160517 | 63 | 29 | 7.0 | 7.0 | 0.00 | 0.00 | 0.00 | 72 | |
| 20260505153017 | 64 | 352 | 2.0 | 4.0 | 0.00 | 0.00 | 0.00 | 56 | |
| 20260505152517 | 64 | 33 | 2.0 | 9.0 | 0.00 | 0.00 | 0.00 | 55 | |
| 20260505152019 | 64 | 295 | 0.0 | 2.0 | 0.00 | 0.00 | 0.00 | 49 | |
| 20260505151517 | 68 | 244 | 0.0 | 2.0 | 0.00 | 0.00 | 0.00 | 44 | |
| 20260505151017 | 66 | 243 | 4.0 | 7.0 | 0.00 | 0.00 | 0.00 | 45 | |
| 20260505150518 | 66 | 242 | 2.0 | 4.0 | 0.00 | 0.00 | 0.00 | 45 | |
| 20260505140518 | 68 | 87 | 0.0 | 4.0 | 0.00 | 0.00 | 0.00 | 43 |